Weather History for Wooster, OH

Change the Weather History Date:

Thursday, February 21, 2013

  Actual Average Record
Temperature  
Mean Temperature 19 °F -  
Max Temperature 21 °F 36 °F 68 °F (1997)
Min Temperature 17 °F 22 °F 1 °F (2008)
Degree Days  
Heating Degree Days 46    
Moisture  
Dew Point 13 °F    
Average Humidity 77    
Maximum Humidity 86    
Minimum Humidity 68    
Precipitation  
Precipitation 0.00 in - - ()
Sea Level Pressure  
Sea Level Pressure 30.30 in    
Wind  
Wind Speed 8 mph (NNW)    
Max Wind Speed 13 mph    
Max Gust Speed -    
Visibility 7 miles    
Events Snow    
Averages and records for this station are not official NWS values.
T = Trace of Precipitation, MM = Missing Value Source: NWS Daily Summary

Daily Weather History Graph

Daily Weather History Graph

Search for Another Location

Airport:

Trip Planner

Search our weather history database for the weather conditions in past years. The results will help you decide how hot, cold, wet, or windy it might be!

Date:

Astronomy

Feb. 21, 2013 Rise Set
Actual Time 7:13 AM EST 6:09 PM EST
Civil Twilight 6:45 AM EST 6:37 PM EST
Nautical Twilight 6:13 AM EST 7:09 PM EST
Astronomical Twilight 5:41 AM EST 7:41 PM EST
Moon 2:22 PM EST (2/21) 4:17 AM EST (2/21)
Length of Visible Light 11h 52m
Length of Day
10h 56m
Waxing Gibbous, 83% of the Moon is Illuminated
Feb 21
Waxing Gibbous
Feb 25
Full
Mar 4
Last Quarter
Mar 11
New
Mar 19
First Quarter

Hourly Weather History & Observations

Time (EST) Temp. Windchill Dew Point Humidity Pressure Visibility Wind Dir Wind Speed Gust Speed Precip Events Conditions
12:56 AM 18.0 °F 6.9 °F 12.0 °F 78% 30.25 in 10.0 mi West 9.2 mph - N/A   Overcast
2:41 AM 17.6 °F 5.7 °F 12.2 °F 79% 30.20 in 6.0 mi WNW 10.4 mph - 0.00 in Snow Light Snow
2:56 AM 18.0 °F 6.9 °F 12.9 °F 81% 30.26 in 6.0 mi West 9.2 mph - 0.00 in Snow Light Snow
3:56 AM 18.0 °F 7.7 °F 14.0 °F 84% 30.26 in 5.0 mi West 8.1 mph - 0.00 in Snow Light Snow
4:56 AM 19.0 °F 9.0 °F 15.1 °F 85% 30.27 in 4.0 mi WNW 8.1 mph - 0.00 in Snow Light Snow
5:37 AM 19.4 °F 9.5 °F 15.8 °F 86% 30.23 in 5.0 mi West 8.1 mph - 0.00 in Snow Light Snow
5:56 AM 19.0 °F 9.0 °F 15.1 °F 85% 30.30 in 3.0 mi WNW 8.1 mph - 0.00 in Snow Light Snow
6:03 AM 19.4 °F 10.4 °F 15.8 °F 86% 30.24 in 3.0 mi WNW 6.9 mph - 0.00 in Snow Light Snow
6:25 AM 19.4 °F 9.5 °F 15.8 °F 86% 30.25 in 2.5 mi NW 8.1 mph - 0.00 in Snow Light Snow
6:41 AM 19.4 °F 6.6 °F 12.2 °F 74% 30.25 in 6.0 mi NW 12.7 mph - 0.00 in Snow Light Snow
6:56 AM 19.0 °F 8.2 °F 12.9 °F 77% 30.31 in 5.0 mi NW 9.2 mph - 0.00 in Snow Light Snow
7:43 AM 17.6 °F 9.3 °F 14.0 °F 86% 30.27 in 1.8 mi NW 5.8 mph - 0.00 in Snow Light Snow
7:56 AM 18.0 °F 7.7 °F 14.0 °F 84% 30.34 in 1.5 mi NW 8.1 mph - 0.00 in Snow Light Snow
8:10 AM 17.6 °F 6.4 °F 14.0 °F 86% 30.29 in 1.5 mi NW 9.2 mph - 0.00 in Snow Light Snow
8:39 AM 17.6 °F 4.3 °F 12.2 °F 79% 30.30 in 3.0 mi North 12.7 mph - 0.00 in Snow Light Snow
8:56 AM 18.0 °F 7.7 °F 12.9 °F 81% 30.37 in 3.0 mi NNW 8.1 mph - 0.00 in Snow Light Snow
9:15 AM 19.4 °F 9.5 °F 12.2 °F 74% 30.30 in 3.0 mi North 8.1 mph - 0.00 in Snow Light Snow
9:56 AM 19.0 °F 9.0 °F 12.0 °F 74% 30.36 in 7.0 mi NNE 8.1 mph - 0.00 in   Overcast
11:56 AM 21.0 °F 11.4 °F 12.9 °F 71% 30.38 in 9.0 mi NNW 8.1 mph - 0.00 in   Overcast
12:56 PM 21.0 °F 13.4 °F 12.9 °F 71% 30.36 in 10.0 mi North 5.8 mph - N/A   Overcast
1:56 PM 21.0 °F 13.4 °F 12.0 °F 68% 30.35 in 10.0 mi North 5.8 mph - 0.00 in   Overcast
2:56 PM 21.9 °F 15.7 °F 14.0 °F 72% 30.34 in 9.0 mi Variable 4.6 mph - N/A   Overcast
3:56 PM 21.9 °F 13.4 °F 12.9 °F 68% 30.33 in 10.0 mi NNE 6.9 mph - N/A   Overcast
4:56 PM 21.9 °F 17.2 °F 12.9 °F 68% 30.34 in 10.0 mi ENE 3.5 mph - N/A   Overcast
5:37 PM 21.2 °F 16.4 °F 12.2 °F 68% 30.29 in 10.0 mi ENE 3.5 mph - N/A   Scattered Clouds
5:56 PM 21.9 °F 13.4 °F 12.9 °F 68% 30.36 in 10.0 mi ENE 6.9 mph - N/A   Clear
6:56 PM 21.0 °F 13.4 °F 12.9 °F 71% 30.37 in 10.0 mi ENE 5.8 mph - N/A   Clear
7:56 PM 19.9 °F 11.1 °F 14.0 °F 78% 30.34 in 10.0 mi ENE 6.9 mph - N/A   Clear
8:56 PM 19.9 °F 11.1 °F 12.9 °F 74% 30.32 in 10.0 mi East 6.9 mph - N/A   Clear
9:56 PM 19.9 °F 9.3 °F 12.9 °F 74% 30.30 in 10.0 mi East 9.2 mph - N/A   Clear
10:56 PM 19.9 °F 10.1 °F 12.9 °F 74% 30.30 in 10.0 mi ESE 8.1 mph - N/A   Clear
11:56 PM 19.9 °F 10.1 °F 14.0 °F 78% 30.29 in 10.0 mi ESE 8.1 mph - N/A   Clear